Location: Church of God
(46.7283°N, 116.9983°W)
Time: 06:47:41
(UTC+00:00)

Cosmos 1812 Rocket - Pass Details

Date: 13 December 2025
Orbit: 599 x 624 km, 82.5° (Epoch: 20 April)

Event Time Altitude Azimuth Distance (km) Brightness Sun altitude
Exits shadow 13:38:49 - 353° (N) 2,416 6.4 -17.2°
Reaches altitude 10° 13:39:57 10° 355° (N) 1,958 5.9 -17.1°
Maximum altitude 13:44:16 72° 79° (E) 640 3.7 -16.3°
Drops below altitude 10° 13:48:35 10° 165° (SSE) 1,956 6.5 -15.6°
Sets 13:50:48 0° 167° (SSE) 2,860 7.4 -15.3°
